Tracking 30258 objects as of 19-Feb-2025
HD Live streaming from Space Station
objects crossing your sky now

STARLINK-5427

Track STARLINK-5427 now!
10-day predictions
STARLINK-5427 is classified as:


NORAD ID: 54853
Int'l Code: 2022-177AK
Perigee: 565.4 km
Apogee: 567.0 km
Inclination: 43.0 °
Period: 95.8 minutes
Semi major axis: 6937 km
RCS: Unknown
Launch date: December 28, 2022
Source: United States (US)
Launch site: AIR FORCE EASTERN TEST RANGE (AFETR)
Your satellite tracking list
Your tracking list is empty




NASA's NSSDC Master Catalog

Two Line Element Set (TLE):
1 54853U 22177AK  25050.51820688  .00000374  00000-0  42730-4 0  9998
2 54853  43.0051  42.5992 0001159 260.7006  99.3706 15.02533529119468
Source of the keplerian elements: AFSPC